Time,TemperatureF,DewpointF,PressureIn,WindDirection,WindDirectionDegrees,WindSpeedMPH,WindSpeedGustMPH,Humidity,HourlyPrecipIn,Conditions,Clouds,dailyrainin,SoftwareType,DateUTC
2013-07-17 00:04:00,59.0,47.7,30.31,WNW,292,2.0,6.0,66,0.00,,,0.01,meteohub,2013-07-16 23:04:00,
2013-07-17 00:09:00,58.1,46.8,30.31,North,0,4.0,6.0,66,0.00,,,0.00,meteohub,2013-07-16 23:09:00,
2013-07-17 00:14:00,57.6,46.2,30.31,NNW,338,3.0,6.0,66,0.00,,,0.00,meteohub,2013-07-16 23:14:00,
2013-07-17 00:19:00,57.2,46.0,30.31,NW,315,2.0,6.0,66,0.00,,,0.00,meteohub,2013-07-16 23:19:00,
2013-07-17 00:24:00,57.0,46.2,30.31,WNW,292,3.0,5.0,67,0.00,,,0.00,meteohub,2013-07-16 23:24:00,
2013-07-17 00:29:00,56.7,46.2,30.31,WNW,292,3.0,4.0,68,0.00,,,0.00,meteohub,2013-07-16 23:29:00,
2013-07-17 00:34:00,56.7,46.6,30.31,WNW,292,3.0,4.0,69,0.00,,,0.00,meteohub,2013-07-16 23:34:00,
2013-07-17 00:39:00,56.3,46.6,30.31,WNW,292,3.0,4.0,70,0.00,,,0.00,meteohub,2013-07-16 23:39:00,
2013-07-17 00:44:00,55.9,46.4,30.31,WNW,292,3.0,4.0,70,0.00,,,0.00,meteohub,2013-07-16 23:44:00,
2013-07-17 00:49:00,55.6,46.0,30.31,WNW,292,3.0,4.0,70,0.00,,,0.00,meteohub,2013-07-16 23:49:00,
2013-07-17 00:54:00,55.8,46.9,30.31,WNW,292,3.0,4.0,72,0.00,,,0.00,meteohub,2013-07-16 23:54:00,
2013-07-17 01:00:00,55.9,47.5,30.31,West,270,2.0,3.0,73,0.00,,,0.00,meteohub,2013-07-17 00:00:00,
2013-07-17 01:05:00,55.8,47.3,30.31,SSW,202,1.0,4.0,73,0.00,,,0.00,meteohub,2013-07-17 00:05:00,
2013-07-17 01:10:00,55.4,46.9,30.31,South,180,0.0,4.0,73,0.00,,,0.00,meteohub,2013-07-17 00:10:00,
2013-07-17 01:15:00,55.0,46.6,30.31,WNW,292,0.0,3.0,73,0.00,,,0.00,meteohub,2013-07-17 00:15:00,
2013-07-17 01:20:00,54.5,46.0,30.31,NW,315,0.0,2.0,73,0.00,,,0.00,meteohub,2013-07-17 00:20:00,
2013-07-17 01:25:00,54.3,45.9,30.31,NW,315,0.0,0.0,73,0.00,,,0.00,meteohub,2013-07-17 00:25:00,
2013-07-17 01:30:00,54.1,45.7,30.31,WNW,292,4.0,4.0,73,0.00,,,0.00,meteohub,2013-07-17 00:30:00,
2013-07-17 01:35:00,55.2,47.5,30.31,West,270,4.0,5.0,75,0.00,,,0.00,meteohub,2013-07-17 00:35:00,
2013-07-17 01:40:00,55.8,48.4,30.31,West,270,4.0,5.0,76,0.00,,,0.00,meteohub,2013-07-17 00:40:00,
2013-07-17 01:46:00,55.8,48.7,30.31,West,270,4.0,5.0,77,0.00,,,0.00,meteohub,2013-07-17 00:46:00,
2013-07-17 01:51:00,55.8,49.1,30.31,West,270,0.0,5.0,78,0.00,,,0.00,meteohub,2013-07-17 00:51:00,
2013-07-17 01:56:00,55.2,48.2,30.31,NNW,338,0.0,5.0,77,0.00,,,0.00,meteohub,2013-07-17 00:56:00,
2013-07-17 02:01:00,54.3,46.6,30.31,NNW,338,0.0,4.0,75,0.00,,,0.00,meteohub,2013-07-17 01:01:00,
2013-07-17 02:06:00,53.8,46.0,30.31,NNW,338,0.0,2.0,75,0.00,,,0.00,meteohub,2013-07-17 01:06:00,
2013-07-17 02:11:00,53.4,45.7,30.31,NNW,338,0.0,2.0,75,0.00,,,0.00,meteohub,2013-07-17 01:11:00,
2013-07-17 02:16:00,53.1,45.3,30.31,NNW,338,0.0,1.0,75,0.00,,,0.00,meteohub,2013-07-17 01:16:00,
2013-07-17 02:21:00,52.9,45.5,30.31,NW,315,0.0,0.0,76,0.00,,,0.00,meteohub,2013-07-17 01:21:00,
2013-07-17 02:26:00,52.7,45.3,30.31,NNW,338,0.0,0.0,76,0.00,,,0.00,meteohub,2013-07-17 01:26:00,
2013-07-17 02:31:00,52.3,45.3,30.31,NNW,338,0.0,0.0,77,0.00,,,0.00,meteohub,2013-07-17 01:31:00,
2013-07-17 02:36:00,52.2,45.1,30.31,WNW,292,2.0,0.0,77,0.00,,,0.00,meteohub,2013-07-17 01:36:00,
2013-07-17 02:41:00,52.0,45.0,30.31,West,270,3.0,4.0,77,0.00,,,0.00,meteohub,2013-07-17 01:41:00,
2013-07-17 02:46:00,52.7,46.4,30.31,WNW,292,4.0,4.0,79,0.00,,,0.00,meteohub,2013-07-17 01:46:00,
2013-07-17 02:51:00,54.0,48.6,30.31,WNW,292,4.0,5.0,82,0.00,,,0.00,meteohub,2013-07-17 01:51:00,
2013-07-17 02:56:00,54.3,48.6,30.31,WNW,292,4.0,5.0,81,0.00,,,0.00,meteohub,2013-07-17 01:56:00,
2013-07-17 03:02:00,54.3,48.9,30.31,WNW,292,4.0,5.0,82,0.00,,,0.00,meteohub,2013-07-17 02:02:00,
2013-07-17 03:07:00,54.3,48.9,30.31,WNW,292,3.0,5.0,82,0.00,,,0.00,meteohub,2013-07-17 02:07:00,
2013-07-17 03:12:00,53.6,47.8,30.31,WNW,292,3.0,4.0,81,0.00,,,0.00,meteohub,2013-07-17 02:12:00,
2013-07-17 03:17:00,53.1,47.5,30.31,WNW,292,3.0,4.0,81,0.00,,,0.00,meteohub,2013-07-17 02:17:00,
2013-07-17 03:22:00,52.5,46.6,30.31,WNW,292,3.0,4.0,80,0.00,,,0.00,meteohub,2013-07-17 02:22:00,
2013-07-17 03:27:00,52.0,46.0,30.31,WNW,292,3.0,4.0,80,0.00,,,0.00,meteohub,2013-07-17 02:27:00,
2013-07-17 03:32:00,51.6,46.0,30.31,WNW,292,3.0,3.0,81,0.00,,,0.00,meteohub,2013-07-17 02:32:00,
2013-07-17 03:37:00,51.6,46.0,30.31,WNW,292,3.0,4.0,81,0.00,,,0.00,meteohub,2013-07-17 02:37:00,
2013-07-17 03:42:00,51.3,45.7,30.31,WNW,292,3.0,4.0,81,0.00,,,0.00,meteohub,2013-07-17 02:42:00,
2013-07-17 03:47:00,51.1,45.9,30.31,NNW,338,2.0,4.0,82,0.00,,,0.00,meteohub,2013-07-17 02:47:00,
2013-07-17 03:52:00,50.9,45.7,30.31,North,0,3.0,3.0,82,0.00,,,0.00,meteohub,2013-07-17 02:52:00,
2013-07-17 03:57:00,50.7,45.5,30.31,North,0,2.0,3.0,82,0.00,,,0.00,meteohub,2013-07-17 02:57:00,
2013-07-17 04:02:00,50.7,45.5,30.31,NNW,338,2.0,3.0,82,0.00,,,0.00,meteohub,2013-07-17 03:02:00,
2013-07-17 04:07:00,50.5,45.5,30.31,NNW,338,1.0,3.0,83,0.00,,,0.00,meteohub,2013-07-17 03:07:00,
2013-07-17 04:12:00,50.5,45.5,30.31,NNW,338,0.0,3.0,83,0.00,,,0.00,meteohub,2013-07-17 03:12:00,
2013-07-17 04:18:00,50.2,45.1,30.31,NNW,338,0.0,3.0,83,0.00,,,0.00,meteohub,2013-07-17 03:18:00,
2013-07-17 04:24:00,50.2,45.1,30.31,NNW,338,0.0,2.0,83,0.00,,,0.00,meteohub,2013-07-17 03:24:00,
2013-07-17 04:29:00,50.0,45.1,30.31,NNE,22,2.0,2.0,83,0.00,,,0.00,meteohub,2013-07-17 03:29:00,
2013-07-17 04:34:00,49.8,45.1,30.31,NNE,22,0.0,3.0,84,0.00,,,0.00,meteohub,2013-07-17 03:34:00,
2013-07-17 04:39:00,50.0,45.3,30.31,NNE,22,0.0,3.0,84,0.00,,,0.00,meteohub,2013-07-17 03:39:00,
2013-07-17 04:44:00,50.0,45.3,30.31,North,0,0.0,3.0,84,0.00,,,0.00,meteohub,2013-07-17 03:44:00,
2013-07-17 04:49:00,50.2,45.9,30.31,North,0,1.0,3.0,85,0.00,,,0.00,meteohub,2013-07-17 03:49:00,
2013-07-17 04:54:00,50.0,45.7,30.31,North,0,3.0,3.0,85,0.00,,,0.00,meteohub,2013-07-17 03:54:00,
2013-07-17 04:59:00,50.0,45.7,30.31,North,0,4.0,4.0,85,0.00,,,0.00,meteohub,2013-07-17 03:59:00,
2013-07-17 05:01:00,50.2,45.9,30.31,North,0,3.0,4.0,85,0.00,,,0.00,meteohub,2013-07-17 04:01:00,
2013-07-17 05:02:00,50.2,45.9,30.31,North,0,3.0,4.0,85,0.00,,,0.00,meteohub,2013-07-17 04:02:00,
2013-07-17 05:03:00,50.2,45.9,30.31,North,0,4.0,4.0,85,0.00,,,0.00,meteohub,2013-07-17 04:03:00,
2013-07-17 05:08:00,50.5,46.6,30.31,NNE,22,4.0,5.0,86,0.00,,,0.00,meteohub,2013-07-17 04:08:00,
2013-07-17 05:13:00,50.7,46.8,30.31,North,0,4.0,5.0,86,0.00,,,0.00,meteohub,2013-07-17 04:13:00,
2013-07-17 05:18:00,51.1,47.3,30.31,North,0,4.0,6.0,87,0.00,,,0.00,meteohub,2013-07-17 04:18:00,
2013-07-17 05:23:00,51.3,47.8,30.31,North,0,3.0,6.0,88,0.00,,,0.00,meteohub,2013-07-17 04:23:00,
2013-07-17 05:28:00,51.3,47.5,30.31,North,0,4.0,6.0,87,0.00,,,0.00,meteohub,2013-07-17 04:28:00,
2013-07-17 05:33:00,51.1,47.3,30.31,North,0,3.0,5.0,87,0.00,,,0.00,meteohub,2013-07-17 04:33:00,
2013-07-17 05:38:00,51.1,47.3,30.31,North,0,3.0,5.0,87,0.00,,,0.00,meteohub,2013-07-17 04:38:00,
2013-07-17 05:44:00,51.3,47.8,30.31,North,0,4.0,5.0,88,0.00,,,0.00,meteohub,2013-07-17 04:44:00,
2013-07-17 05:49:00,51.4,48.0,30.31,North,0,3.0,5.0,88,0.00,,,0.00,meteohub,2013-07-17 04:49:00,
2013-07-17 05:54:00,51.4,48.0,30.31,North,0,4.0,4.0,88,0.00,,,0.00,meteohub,2013-07-17 04:54:00,
2013-07-17 05:56:00,51.6,48.2,30.31,North,0,2.0,4.0,88,0.00,,,0.00,meteohub,2013-07-17 04:56:00,
2013-07-17 06:00:00,51.6,48.6,30.31,North,0,2.0,4.0,89,0.00,,,0.00,meteohub,2013-07-17 05:00:00,
2013-07-17 06:05:00,51.8,48.7,30.31,NNW,338,3.0,4.0,89,0.00,,,0.00,meteohub,2013-07-17 05:05:00,
2013-07-17 06:10:00,52.0,48.9,30.31,NNW,338,2.0,4.0,89,0.00,,,0.00,meteohub,2013-07-17 05:10:00,
2013-07-17 06:15:00,52.3,49.5,30.31,NNW,338,3.0,3.0,90,0.00,,,0.00,meteohub,2013-07-17 05:15:00,
2013-07-17 06:20:00,52.9,50.4,30.31,NNW,338,2.0,3.0,91,0.00,,,0.00,meteohub,2013-07-17 05:20:00,
2013-07-17 06:25:00,53.1,50.5,30.31,North,0,3.0,3.0,91,0.00,,,0.00,meteohub,2013-07-17 05:25:00,
2013-07-17 06:30:00,53.6,51.1,30.31,NNE,22,0.0,4.0,91,0.00,,,0.00,meteohub,2013-07-17 05:30:00,
2013-07-17 06:35:00,53.8,51.3,30.31,NNE,22,2.0,4.0,91,0.00,,,0.00,meteohub,2013-07-17 05:35:00,
2013-07-17 06:40:00,54.1,51.6,30.31,NNE,22,2.0,4.0,91,0.00,,,0.00,meteohub,2013-07-17 05:40:00,
2013-07-17 06:45:00,54.5,52.2,30.31,North,0,3.0,3.0,92,0.00,,,0.00,meteohub,2013-07-17 05:45:00,
2013-07-17 06:50:00,55.2,52.9,30.31,North,0,3.0,3.0,92,0.00,,,0.00,meteohub,2013-07-17 05:50:00,
2013-07-17 06:55:00,55.8,53.8,30.31,NNW,338,3.0,3.0,93,0.00,,,0.00,meteohub,2013-07-17 05:55:00,
2013-07-17 07:00:00,56.1,54.1,30.31,North,0,3.0,3.0,93,0.00,,,0.00,meteohub,2013-07-17 06:00:00,
2013-07-17 07:05:00,56.5,54.5,30.31,NNE,22,2.0,3.0,93,0.00,,,0.00,meteohub,2013-07-17 06:05:00,
2013-07-17 07:11:00,56.8,54.9,30.31,North,0,0.0,3.0,93,0.00,,,0.00,meteohub,2013-07-17 06:11:00,
2013-07-17 07:16:00,57.2,55.2,30.31,NNW,338,3.0,3.0,93,0.00,,,0.00,meteohub,2013-07-17 06:16:00,
2013-07-17 07:21:00,57.4,55.4,30.31,WNW,292,0.0,4.0,93,0.00,,,0.00,meteohub,2013-07-17 06:21:00,
2013-07-17 07:26:00,57.6,55.2,30.31,WSW,248,4.0,4.0,92,0.00,,,0.00,meteohub,2013-07-17 06:26:00,
2013-07-17 07:31:00,57.7,55.4,30.31,West,270,4.0,5.0,92,0.00,,,0.00,meteohub,2013-07-17 06:31:00,
2013-07-17 07:36:00,57.9,55.6,30.31,West,270,4.0,6.0,92,0.00,,,0.00,meteohub,2013-07-17 06:36:00,
2013-07-17 07:41:00,58.5,56.1,30.31,WNW,292,0.0,6.0,92,0.00,,,0.00,meteohub,2013-07-17 06:41:00,
2013-07-17 07:46:00,58.8,56.5,30.31,West,270,0.0,6.0,92,0.00,,,0.00,meteohub,2013-07-17 06:46:00,
2013-07-17 07:51:00,59.0,56.3,30.31,West,270,4.0,5.0,91,0.00,,,0.00,meteohub,2013-07-17 06:51:00,
2013-07-17 07:56:00,59.5,56.8,30.31,NW,315,0.0,5.0,91,0.00,,,0.00,meteohub,2013-07-17 06:56:00,
2013-07-17 08:01:00,60.1,57.4,30.31,West,270,4.0,5.0,91,0.00,,,0.00,meteohub,2013-07-17 07:01:00,
2013-07-17 08:06:00,60.6,57.9,30.31,West,270,6.0,7.0,91,0.00,,,0.00,meteohub,2013-07-17 07:06:00,
2013-07-17 08:11:00,61.2,57.9,30.31,WSW,248,5.0,7.0,89,0.00,,,0.00,meteohub,2013-07-17 07:11:00,
2013-07-17 08:16:00,61.7,57.6,30.31,SW,225,3.0,7.0,86,0.00,,,0.00,meteohub,2013-07-17 07:16:00,
2013-07-17 08:21:00,62.2,57.0,30.31,WSW,248,6.0,6.0,83,0.00,,,0.00,meteohub,2013-07-17 07:21:00,
2013-07-17 08:27:00,62.6,56.3,30.31,WSW,248,6.0,7.0,80,0.00,,,0.00,meteohub,2013-07-17 07:27:00,
2013-07-17 08:32:00,63.0,55.6,30.31,WSW,248,6.0,8.0,77,0.00,,,0.00,meteohub,2013-07-17 07:32:00,
2013-07-17 08:37:00,63.1,54.3,30.31,SSW,202,7.0,9.0,73,0.00,,,0.00,meteohub,2013-07-17 07:37:00,
2013-07-17 08:42:00,63.5,54.0,30.31,West,270,8.0,11.0,71,0.00,,,0.00,meteohub,2013-07-17 07:42:00,
2013-07-17 08:47:00,64.0,54.5,30.31,WSW,248,4.0,11.0,71,0.00,,,0.00,meteohub,2013-07-17 07:47:00,
2013-07-17 08:52:00,64.4,54.0,30.31,WSW,248,4.0,11.0,69,0.00,,,0.00,meteohub,2013-07-17 07:52:00,
2013-07-17 08:57:00,64.9,53.8,30.31,SW,225,6.0,9.0,67,0.00,,,0.00,meteohub,2013-07-17 07:57:00,
2013-07-17 09:02:00,65.1,52.2,30.34,WSW,248,6.0,11.0,63,0.00,,,0.00,meteohub,2013-07-17 08:02:00,
2013-07-17 09:07:00,65.5,51.3,30.34,SW,225,10.0,11.0,60,0.00,,,0.00,meteohub,2013-07-17 08:07:00,
2013-07-17 09:12:00,66.0,52.2,30.34,SSW,202,5.0,11.0,61,0.00,,,0.00,meteohub,2013-07-17 08:12:00,
2013-07-17 09:17:00,66.4,50.2,30.34,WSW,248,11.0,11.0,56,0.00,,,0.00,meteohub,2013-07-17 08:17:00,
2013-07-17 09:22:00,66.4,49.8,30.34,SW,225,11.0,13.0,55,0.00,,,0.00,meteohub,2013-07-17 08:22:00,
2013-07-17 09:27:00,66.9,49.8,30.31,SW,225,8.0,13.0,54,0.00,,,0.00,meteohub,2013-07-17 08:27:00,
2013-07-17 09:32:00,67.1,48.9,30.31,WSW,248,10.0,14.0,52,0.00,,,0.00,meteohub,2013-07-17 08:32:00,
2013-07-17 09:37:00,67.3,48.0,30.31,WSW,248,10.0,14.0,50,0.00,,,0.00,meteohub,2013-07-17 08:37:00,
2013-07-17 09:42:00,67.3,45.9,30.31,WSW,248,11.0,15.0,46,0.00,,,0.00,meteohub,2013-07-17 08:42:00,
2013-07-17 09:47:00,67.6,45.5,30.31,WSW,248,8.0,15.0,45,0.00,,,0.00,meteohub,2013-07-17 08:47:00,
2013-07-17 09:53:00,68.0,45.3,30.31,WSW,248,10.0,15.0,44,0.00,,,0.00,meteohub,2013-07-17 08:53:00,
2013-07-17 09:58:00,68.0,44.8,30.34,SW,225,8.0,15.0,43,0.00,,,0.00,meteohub,2013-07-17 08:58:00,
2013-07-17 10:03:00,68.0,44.1,30.34,WSW,248,11.0,15.0,42,0.00,,,0.00,meteohub,2013-07-17 09:03:00,
2013-07-17 10:08:00,68.5,44.6,30.34,WSW,248,12.0,17.0,42,0.00,,,0.00,meteohub,2013-07-17 09:08:00,
2013-07-17 10:13:00,68.2,42.3,30.34,WSW,248,8.0,17.0,39,0.00,,,0.00,meteohub,2013-07-17 09:13:00,
2013-07-17 10:18:00,68.0,41.5,30.34,SW,225,11.0,17.0,38,0.00,,,0.00,meteohub,2013-07-17 09:18:00,
2013-07-17 10:23:00,68.0,40.8,30.34,WSW,248,17.0,19.0,37,0.00,,,0.00,meteohub,2013-07-17 09:23:00,
2013-07-17 10:28:00,68.0,40.8,30.34,SW,225,8.0,19.0,37,0.00,,,0.00,meteohub,2013-07-17 09:28:00,
2013-07-17 10:33:00,68.4,41.7,30.34,WSW,248,13.0,19.0,38,0.00,,,0.00,meteohub,2013-07-17 09:33:00,
2013-07-17 10:38:00,68.5,41.9,30.34,WSW,248,13.0,17.0,38,0.00,,,0.00,meteohub,2013-07-17 09:38:00,
2013-07-17 10:43:00,69.4,43.5,30.34,SW,225,11.0,16.0,39,0.00,,,0.00,meteohub,2013-07-17 09:43:00,
2013-07-17 10:48:00,69.4,40.6,30.34,WSW,248,11.0,19.0,35,0.00,,,0.00,meteohub,2013-07-17 09:48:00,
2013-07-17 10:53:00,69.6,40.8,30.34,WSW,248,12.0,19.0,35,0.00,,,0.00,meteohub,2013-07-17 09:53:00,
2013-07-17 10:58:00,69.8,40.3,30.31,WSW,248,12.0,19.0,34,0.00,,,0.00,meteohub,2013-07-17 09:58:00,
2013-07-17 11:03:00,70.2,40.5,30.31,WSW,248,17.0,17.0,34,0.00,,,0.00,meteohub,2013-07-17 10:03:00,
2013-07-17 11:08:00,70.3,39.9,30.31,WSW,248,8.0,20.0,33,0.00,,,0.00,meteohub,2013-07-17 10:08:00,
2013-07-17 11:14:00,70.7,40.3,30.31,WSW,248,11.0,20.0,33,0.00,,,0.00,meteohub,2013-07-17 10:14:00,
2013-07-17 11:19:00,70.7,40.3,30.31,SW,225,9.0,20.0,33,0.00,,,0.00,meteohub,2013-07-17 10:19:00,
2013-07-17 11:24:00,70.5,39.2,30.31,West,270,13.0,17.0,32,0.00,,,0.00,meteohub,2013-07-17 10:24:00,
2013-07-17 11:29:00,70.7,39.4,30.31,SW,225,13.0,18.0,32,0.00,,,0.00,meteohub,2013-07-17 10:29:00,
2013-07-17 11:34:00,70.9,39.6,30.31,WSW,248,17.0,20.0,32,0.00,,,0.00,meteohub,2013-07-17 10:34:00,
2013-07-17 11:39:00,70.7,39.4,30.31,SW,225,16.0,23.0,32,0.00,,,0.00,meteohub,2013-07-17 10:39:00,
2013-07-17 11:44:00,70.7,39.4,30.34,WSW,248,15.0,23.0,32,0.00,,,0.00,meteohub,2013-07-17 10:44:00,
2013-07-17 11:49:00,70.9,39.6,30.34,West,270,13.0,23.0,32,0.00,,,0.00,meteohub,2013-07-17 10:49:00,
2013-07-17 11:54:00,71.2,39.9,30.34,WSW,248,13.0,21.0,32,0.00,,,0.00,meteohub,2013-07-17 10:54:00,
2013-07-17 11:59:00,71.2,39.9,30.34,WSW,248,13.0,21.0,32,0.00,,,0.00,meteohub,2013-07-17 10:59:00,
2013-07-17 12:04:00,71.1,39.7,30.34,WSW,248,7.0,21.0,32,0.00,,,0.00,meteohub,2013-07-17 11:04:00,
2013-07-17 12:09:00,70.9,39.6,30.34,West,270,11.0,21.0,32,0.00,,,0.00,meteohub,2013-07-17 11:09:00,
2013-07-17 12:14:00,70.7,39.4,30.34,SW,225,6.0,21.0,32,0.00,,,0.00,meteohub,2013-07-17 11:14:00,
2013-07-17 12:19:00,71.1,38.1,30.34,SSW,202,10.0,20.0,30,0.00,,,0.00,meteohub,2013-07-17 11:19:00,
2013-07-17 12:24:00,70.9,36.1,30.34,WSW,248,16.0,18.0,28,0.00,,,0.00,meteohub,2013-07-17 11:24:00,
2013-07-17 12:29:00,71.1,36.3,30.34,WSW,248,11.0,18.0,28,0.00,,,0.00,meteohub,2013-07-17 11:29:00,
2013-07-17 12:35:00,71.2,38.3,30.34,WSW,248,10.0,18.0,30,0.00,,,0.00,meteohub,2013-07-17 11:35:00,
2013-07-17 12:40:00,70.9,36.1,30.34,WSW,248,8.0,18.0,28,0.00,,,0.00,meteohub,2013-07-17 11:40:00,
2013-07-17 12:45:00,70.9,36.1,30.34,WSW,248,13.0,18.0,28,0.00,,,0.00,meteohub,2013-07-17 11:45:00,
2013-07-17 12:50:00,71.1,36.3,30.34,WSW,248,13.0,19.0,28,0.00,,,0.00,meteohub,2013-07-17 11:50:00,
2013-07-17 12:55:00,70.9,35.2,30.34,WSW,248,18.0,19.0,27,0.00,,,0.00,meteohub,2013-07-17 11:55:00,
2013-07-17 13:00:00,70.9,36.1,30.34,West,270,11.0,19.0,28,0.00,,,0.00,meteohub,2013-07-17 12:00:00,
2013-07-17 13:05:00,71.4,39.2,30.34,SW,225,8.0,22.0,31,0.00,,,0.00,meteohub,2013-07-17 12:05:00,
2013-07-17 13:10:00,71.6,37.8,30.34,SW,225,15.0,22.0,29,0.00,,,0.00,meteohub,2013-07-17 12:10:00,
2013-07-17 13:15:00,71.2,37.4,30.34,SW,225,14.0,18.0,29,0.00,,,0.00,meteohub,2013-07-17 12:15:00,
2013-07-17 13:20:00,71.2,37.4,30.34,WSW,248,13.0,21.0,29,0.00,,,0.00,meteohub,2013-07-17 12:20:00,
2013-07-17 13:25:00,71.4,38.5,30.34,West,270,9.0,21.0,30,0.00,,,0.00,meteohub,2013-07-17 12:25:00,
2013-07-17 13:30:00,71.4,37.6,30.34,WSW,248,11.0,21.0,29,0.00,,,0.00,meteohub,2013-07-17 12:30:00,
2013-07-17 13:35:00,71.2,37.4,30.34,WSW,248,7.0,20.0,29,0.00,,,0.00,meteohub,2013-07-17 12:35:00,
2013-07-17 13:40:00,71.2,37.4,30.34,WSW,248,11.0,20.0,29,0.00,,,0.00,meteohub,2013-07-17 12:40:00,
2013-07-17 13:45:00,71.2,38.3,30.34,SW,225,7.0,20.0,30,0.00,,,0.00,meteohub,2013-07-17 12:45:00,
2013-07-17 13:50:00,71.4,38.5,30.34,WSW,248,6.0,16.0,30,0.00,,,0.00,meteohub,2013-07-17 12:50:00,
2013-07-17 13:55:00,71.4,39.2,30.34,SSW,202,8.0,16.0,31,0.00,,,0.00,meteohub,2013-07-17 12:55:00,
2013-07-17 14:00:00,71.4,39.2,30.34,WSW,248,17.0,17.0,31,0.00,,,0.00,meteohub,2013-07-17 13:00:00,
2013-07-17 14:06:00,71.4,39.2,30.34,WSW,248,11.0,19.0,31,0.00,,,0.00,meteohub,2013-07-17 13:06:00,
2013-07-17 14:11:00,71.6,37.8,30.34,SSW,202,11.0,19.0,29,0.00,,,0.00,meteohub,2013-07-17 13:11:00,
2013-07-17 14:16:00,71.6,37.8,30.34,WSW,248,10.0,19.0,29,0.00,,,0.00,meteohub,2013-07-17 13:16:00,
2013-07-17 14:21:00,71.8,38.7,30.34,WSW,248,6.0,19.0,30,0.00,,,0.00,meteohub,2013-07-17 13:21:00,
2013-07-17 14:26:00,71.8,37.9,30.34,WSW,248,7.0,19.0,29,0.00,,,0.00,meteohub,2013-07-17 13:26:00,
2013-07-17 14:31:00,71.8,37.0,30.34,WSW,248,6.0,19.0,28,0.00,,,0.00,meteohub,2013-07-17 13:31:00,
2013-07-17 14:36:00,72.0,37.9,30.34,SW,225,13.0,19.0,29,0.00,,,0.00,meteohub,2013-07-17 13:36:00,
2013-07-17 14:41:00,71.8,37.0,30.34,South,180,10.0,16.0,28,0.00,,,0.00,meteohub,2013-07-17 13:41:00,
2013-07-17 14:46:00,71.8,37.9,30.34,WSW,248,13.0,15.0,29,0.00,,,0.00,meteohub,2013-07-17 13:46:00,
2013-07-17 14:51:00,71.8,37.0,30.34,SW,225,6.0,16.0,28,0.00,,,0.00,meteohub,2013-07-17 13:51:00,
2013-07-17 14:56:00,71.8,37.0,30.34,WSW,248,10.0,16.0,28,0.00,,,0.00,meteohub,2013-07-17 13:56:00,
2013-07-17 15:01:00,72.0,37.9,30.34,West,270,14.0,16.0,29,0.00,,,0.00,meteohub,2013-07-17 14:01:00,
2013-07-17 15:06:00,72.0,37.0,30.34,WSW,248,10.0,17.0,28,0.00,,,0.00,meteohub,2013-07-17 14:06:00,
2013-07-17 15:11:00,71.8,37.9,30.34,WSW,248,12.0,18.0,29,0.00,,,0.00,meteohub,2013-07-17 14:11:00,
2013-07-17 15:16:00,71.8,37.9,30.34,WSW,248,15.0,18.0,29,0.00,,,0.00,meteohub,2013-07-17 14:16:00,
2013-07-17 15:21:00,72.0,38.8,30.34,SW,225,8.0,18.0,30,0.00,,,0.00,meteohub,2013-07-17 14:21:00,
2013-07-17 15:27:00,72.1,39.9,30.34,SW,225,15.0,15.0,31,0.00,,,0.00,meteohub,2013-07-17 14:27:00,
2013-07-17 15:32:00,72.3,40.1,30.34,WSW,248,13.0,15.0,31,0.00,,,0.00,meteohub,2013-07-17 14:32:00,
2013-07-17 15:37:00,72.1,37.2,30.34,WSW,248,10.0,15.0,28,0.00,,,0.00,meteohub,2013-07-17 14:37:00,
2013-07-17 15:42:00,72.1,39.0,30.34,SW,225,11.0,17.0,30,0.00,,,0.00,meteohub,2013-07-17 14:42:00,
2013-07-17 15:47:00,72.1,39.0,30.34,West,270,10.0,17.0,30,0.00,,,0.00,meteohub,2013-07-17 14:47:00,
2013-07-17 15:52:00,72.5,40.1,30.34,WSW,248,7.0,17.0,31,0.00,,,0.00,meteohub,2013-07-17 14:52:00,
2013-07-17 15:57:00,72.9,39.6,30.34,WSW,248,11.0,17.0,30,0.00,,,0.00,meteohub,2013-07-17 14:57:00,
2013-07-17 16:02:00,73.0,40.6,30.37,WSW,248,10.0,15.0,31,0.00,,,0.00,meteohub,2013-07-17 15:02:00,
2013-07-17 16:07:00,72.7,38.7,30.37,WNW,292,10.0,15.0,29,0.00,,,0.00,meteohub,2013-07-17 15:07:00,
2013-07-17 16:12:00,72.7,39.6,30.37,WSW,248,9.0,15.0,30,0.00,,,0.00,meteohub,2013-07-17 15:12:00,
2013-07-17 16:17:00,72.5,38.5,30.37,WSW,248,12.0,15.0,29,0.00,,,0.00,meteohub,2013-07-17 15:17:00,
2013-07-17 16:22:00,72.5,40.1,30.37,SSW,202,7.0,20.0,31,0.00,,,0.00,meteohub,2013-07-17 15:22:00,
2013-07-17 16:27:00,72.7,40.3,30.37,WSW,248,9.0,20.0,31,0.00,,,0.00,meteohub,2013-07-17 15:27:00,
2013-07-17 16:33:00,72.7,41.2,30.37,West,270,5.0,20.0,32,0.00,,,0.00,meteohub,2013-07-17 15:33:00,
2013-07-17 16:38:00,72.7,41.2,30.37,WNW,292,15.0,15.0,32,0.00,,,0.00,meteohub,2013-07-17 15:38:00,
2013-07-17 16:43:00,72.1,39.9,30.34,WNW,292,13.0,17.0,31,0.00,,,0.00,meteohub,2013-07-17 15:43:00,
2013-07-17 16:48:00,71.8,40.3,30.34,WSW,248,9.0,17.0,32,0.00,,,0.00,meteohub,2013-07-17 15:48:00,
2013-07-17 16:53:00,71.8,40.3,30.34,West,270,10.0,17.0,32,0.00,,,0.00,meteohub,2013-07-17 15:53:00,
2013-07-17 16:58:00,71.4,40.8,30.37,WNW,292,15.0,17.0,33,0.00,,,0.00,meteohub,2013-07-17 15:58:00,
2013-07-17 17:03:00,71.6,41.0,30.37,WSW,248,8.0,16.0,33,0.00,,,0.00,meteohub,2013-07-17 16:03:00,
2013-07-17 17:08:00,71.8,41.2,30.37,West,270,8.0,16.0,33,0.00,,,0.00,meteohub,2013-07-17 16:08:00,
2013-07-17 17:13:00,72.0,41.4,30.37,SW,225,7.0,16.0,33,0.00,,,0.00,meteohub,2013-07-17 16:13:00,
2013-07-17 17:18:00,72.5,41.7,30.37,SW,225,8.0,13.0,33,0.00,,,0.00,meteohub,2013-07-17 16:18:00,
2013-07-17 17:23:00,72.3,41.7,30.37,WNW,292,10.0,13.0,33,0.00,,,0.00,meteohub,2013-07-17 16:23:00,
2013-07-17 17:28:00,72.3,41.7,30.34,NW,315,7.0,13.0,33,0.00,,,0.00,meteohub,2013-07-17 16:28:00,
2013-07-17 17:33:00,72.5,41.7,30.34,West,270,6.0,13.0,33,0.00,,,0.00,meteohub,2013-07-17 16:33:00,
2013-07-17 17:38:00,72.3,40.8,30.34,WSW,248,9.0,13.0,32,0.00,,,0.00,meteohub,2013-07-17 16:38:00,
2013-07-17 17:43:00,72.0,40.5,30.37,West,270,12.0,14.0,32,0.00,,,0.00,meteohub,2013-07-17 16:43:00,
2013-07-17 17:49:00,72.0,40.5,30.37,West,270,12.0,15.0,32,0.00,,,0.00,meteohub,2013-07-17 16:49:00,
2013-07-17 17:54:00,71.8,41.2,30.37,West,270,9.0,19.0,33,0.00,,,0.00,meteohub,2013-07-17 16:54:00,
2013-07-17 17:59:00,71.4,40.8,30.37,WNW,292,10.0,19.0,33,0.00,,,0.00,meteohub,2013-07-17 16:59:00,
2013-07-17 18:04:00,71.2,40.6,30.37,West,270,6.0,19.0,33,0.00,,,0.00,meteohub,2013-07-17 17:04:00,
2013-07-17 18:09:00,71.6,41.0,30.37,West,270,12.0,16.0,33,0.00,,,0.00,meteohub,2013-07-17 17:09:00,
2013-07-17 18:14:00,71.4,41.5,30.37,West,270,9.0,16.0,34,0.00,,,0.00,meteohub,2013-07-17 17:14:00,
2013-07-17 18:19:00,71.8,41.2,30.37,West,270,10.0,15.0,33,0.00,,,0.00,meteohub,2013-07-17 17:19:00,
2013-07-17 18:24:00,71.6,40.3,30.37,West,270,10.0,15.0,32,0.00,,,0.00,meteohub,2013-07-17 17:24:00,
2013-07-17 18:29:00,71.4,40.8,30.37,WSW,248,5.0,15.0,33,0.00,,,0.00,meteohub,2013-07-17 17:29:00,
2013-07-17 18:34:00,71.2,40.6,30.37,WSW,248,6.0,14.0,33,0.00,,,0.00,meteohub,2013-07-17 17:34:00,
2013-07-17 18:39:00,71.4,40.8,30.37,WSW,248,12.0,15.0,33,0.00,,,0.00,meteohub,2013-07-17 17:39:00,
2013-07-17 18:44:00,71.4,40.8,30.37,West,270,6.0,15.0,33,0.00,,,0.00,meteohub,2013-07-17 17:44:00,
2013-07-17 18:49:00,71.6,41.0,30.37,WSW,248,8.0,15.0,33,0.00,,,0.00,meteohub,2013-07-17 17:49:00,
2013-07-17 18:54:00,71.2,40.6,30.37,West,270,4.0,15.0,33,0.00,,,0.00,meteohub,2013-07-17 17:54:00,
2013-07-17 18:59:00,71.2,40.6,30.37,SW,225,8.0,15.0,33,0.00,,,0.00,meteohub,2013-07-17 17:59:00,
2013-07-17 19:04:00,71.4,41.5,30.37,West,270,6.0,13.0,34,0.00,,,0.00,meteohub,2013-07-17 18:04:00,
2013-07-17 19:10:00,71.2,41.5,30.37,West,270,5.0,13.0,34,0.00,,,0.00,meteohub,2013-07-17 18:10:00,
2013-07-17 19:15:00,71.2,41.5,30.37,WSW,248,9.0,13.0,34,0.00,,,0.00,meteohub,2013-07-17 18:15:00,
2013-07-17 19:20:00,70.9,41.2,30.37,WSW,248,4.0,13.0,34,0.00,,,0.00,meteohub,2013-07-17 18:20:00,
2013-07-17 19:25:00,70.9,41.2,30.37,WSW,248,8.0,10.0,34,0.00,,,0.00,meteohub,2013-07-17 18:25:00,
2013-07-17 19:30:00,71.2,42.3,30.37,WSW,248,5.0,10.0,35,0.00,,,0.00,meteohub,2013-07-17 18:30:00,
2013-07-17 19:35:00,71.2,41.5,30.37,WSW,248,6.0,11.0,34,0.00,,,0.00,meteohub,2013-07-17 18:35:00,
2013-07-17 19:40:00,70.9,41.2,30.37,WSW,248,10.0,11.0,34,0.00,,,0.00,meteohub,2013-07-17 18:40:00,
2013-07-17 19:45:00,70.7,41.7,30.37,WSW,248,9.0,11.0,35,0.00,,,0.00,meteohub,2013-07-17 18:45:00,
2013-07-17 19:50:00,70.5,41.5,30.37,West,270,3.0,11.0,35,0.00,,,0.00,meteohub,2013-07-17 18:50:00,
2013-07-17 19:55:00,70.2,41.9,30.37,WNW,292,11.0,11.0,36,0.00,,,0.00,meteohub,2013-07-17 18:55:00,
2013-07-17 20:00:00,69.8,42.4,30.37,WNW,292,8.0,11.0,37,0.00,,,0.00,meteohub,2013-07-17 19:00:00,
2013-07-17 20:05:00,69.4,42.8,30.37,West,270,6.0,11.0,38,0.00,,,0.00,meteohub,2013-07-17 19:05:00,
2013-07-17 20:10:00,69.1,43.2,30.37,West,270,6.0,10.0,39,0.00,,,0.00,meteohub,2013-07-17 19:10:00,
2013-07-17 20:15:00,68.9,43.5,30.40,NW,315,3.0,9.0,40,0.00,,,0.00,meteohub,2013-07-17 19:15:00,
2013-07-17 20:20:00,68.5,43.9,30.40,WSW,248,6.0,9.0,41,0.00,,,0.00,meteohub,2013-07-17 19:20:00,
2013-07-17 20:26:00,68.2,43.5,30.40,WSW,248,4.0,8.0,41,0.00,,,0.00,meteohub,2013-07-17 19:26:00,
2013-07-17 20:31:00,68.0,44.1,30.37,WNW,292,5.0,9.0,42,0.00,,,0.00,meteohub,2013-07-17 19:31:00,
2013-07-17 20:36:00,67.6,43.7,30.37,West,270,13.0,13.0,42,0.00,,,0.00,meteohub,2013-07-17 19:36:00,
2013-07-17 20:41:00,67.5,43.5,30.37,West,270,6.0,13.0,42,0.00,,,0.00,meteohub,2013-07-17 19:41:00,
2013-07-17 20:46:00,67.3,43.3,30.37,NW,315,11.0,13.0,42,0.00,,,0.00,meteohub,2013-07-17 19:46:00,
2013-07-17 20:51:00,67.1,43.9,30.37,West,270,6.0,13.0,43,0.00,,,0.00,meteohub,2013-07-17 19:51:00,
2013-07-17 20:56:00,66.9,43.7,30.37,West,270,4.0,13.0,43,0.00,,,0.00,meteohub,2013-07-17 19:56:00,
2013-07-17 21:01:00,66.7,44.2,30.40,West,270,6.0,13.0,44,0.00,,,0.00,meteohub,2013-07-17 20:01:00,
2013-07-17 21:06:00,66.6,44.1,30.40,WNW,292,6.0,11.0,44,0.00,,,0.00,meteohub,2013-07-17 20:06:00,
2013-07-17 21:11:00,66.4,43.9,30.40,West,270,4.0,11.0,44,0.00,,,0.00,meteohub,2013-07-17 20:11:00,
2013-07-17 21:16:00,66.0,43.5,30.40,WNW,292,4.0,11.0,44,0.00,,,0.00,meteohub,2013-07-17 20:16:00,
2013-07-17 21:21:00,65.8,43.3,30.40,WNW,292,5.0,8.0,44,0.00,,,0.00,meteohub,2013-07-17 20:21:00,
2013-07-17 21:26:00,65.7,43.7,30.40,WSW,248,4.0,7.0,45,0.00,,,0.00,meteohub,2013-07-17 20:26:00,
2013-07-17 21:31:00,65.5,43.5,30.40,West,270,3.0,7.0,45,0.00,,,0.00,meteohub,2013-07-17 20:31:00,
2013-07-17 21:36:00,65.3,43.5,30.40,WSW,248,0.0,7.0,45,0.00,,,0.00,meteohub,2013-07-17 20:36:00,
2013-07-17 21:41:00,65.1,43.3,30.40,SSE,158,4.0,7.0,45,0.00,,,0.00,meteohub,2013-07-17 20:41:00,
2013-07-17 21:47:00,65.1,43.3,30.40,ESE,112,3.0,5.0,45,0.00,,,0.00,meteohub,2013-07-17 20:47:00,
2013-07-17 21:52:00,64.9,43.7,30.40,SE,135,1.0,4.0,46,0.00,,,0.00,meteohub,2013-07-17 20:52:00,
2013-07-17 21:57:00,64.8,43.5,30.40,NNE,22,2.0,4.0,46,0.00,,,0.00,meteohub,2013-07-17 20:57:00,
2013-07-17 22:02:00,64.4,43.7,30.40,NNE,22,2.0,4.0,47,0.00,,,0.00,meteohub,2013-07-17 21:02:00,
2013-07-17 22:07:00,64.2,43.5,30.40,East,90,2.0,3.0,47,0.00,,,0.00,meteohub,2013-07-17 21:07:00,
2013-07-17 22:12:00,64.0,44.1,30.40,NNE,22,0.0,4.0,48,0.00,,,0.00,meteohub,2013-07-17 21:12:00,
2013-07-17 22:17:00,63.9,43.9,30.40,NE,45,0.0,4.0,48,0.00,,,0.00,meteohub,2013-07-17 21:17:00,
2013-07-17 22:22:00,63.7,44.2,30.40,SSE,158,2.0,4.0,49,0.00,,,0.00,meteohub,2013-07-17 21:22:00,
2013-07-17 22:27:00,63.3,43.9,30.40,ENE,68,4.0,4.0,49,0.00,,,0.00,meteohub,2013-07-17 21:27:00,
2013-07-17 22:32:00,63.1,44.2,30.40,NE,45,1.0,4.0,50,0.00,,,0.00,meteohub,2013-07-17 21:32:00,
2013-07-17 22:37:00,63.1,44.8,30.40,SSE,158,2.0,4.0,51,0.00,,,0.00,meteohub,2013-07-17 21:37:00,
2013-07-17 22:42:00,63.1,45.3,30.40,South,180,2.0,4.0,52,0.00,,,0.00,meteohub,2013-07-17 21:42:00,
2013-07-17 22:47:00,63.1,45.7,30.40,WSW,248,2.0,4.0,53,0.00,,,0.00,meteohub,2013-07-17 21:47:00,
2013-07-17 22:53:00,63.0,45.5,30.40,South,180,1.0,4.0,53,0.00,,,0.00,meteohub,2013-07-17 21:53:00,
2013-07-17 22:58:00,63.0,45.5,30.40,SSW,202,0.0,3.0,53,0.00,,,0.00,meteohub,2013-07-17 21:58:00,
2013-07-17 23:03:00,62.6,44.8,30.40,WNW,292,3.0,3.0,52,0.00,,,0.00,meteohub,2013-07-17 22:03:00,
2013-07-17 23:08:00,62.2,45.0,30.40,West,270,4.0,4.0,53,0.00,,,0.00,meteohub,2013-07-17 22:08:00,
2013-07-17 23:13:00,62.2,45.3,30.40,WSW,248,4.0,4.0,54,0.00,,,0.00,meteohub,2013-07-17 22:13:00,
2013-07-17 23:18:00,62.4,46.9,30.40,WSW,248,8.0,8.0,57,0.00,,,0.00,meteohub,2013-07-17 22:18:00,
2013-07-17 23:23:00,62.8,49.1,30.40,West,270,6.0,8.0,61,0.00,,,0.00,meteohub,2013-07-17 22:23:00,
2013-07-17 23:28:00,63.1,49.5,30.40,West,270,4.0,8.0,61,0.00,,,0.00,meteohub,2013-07-17 22:28:00,
2013-07-17 23:33:00,62.6,48.6,30.40,West,270,4.0,8.0,60,0.00,,,0.00,meteohub,2013-07-17 22:33:00,
2013-07-17 23:38:00,62.1,47.7,30.40,West,270,5.0,8.0,59,0.00,,,0.00,meteohub,2013-07-17 22:38:00,
2013-07-17 23:43:00,61.5,47.5,30.40,WNW,292,6.0,6.0,60,0.00,,,0.00,meteohub,2013-07-17 22:43:00,
2013-07-17 23:48:00,61.3,48.2,30.40,WNW,292,6.0,6.0,62,0.00,,,0.00,meteohub,2013-07-17 22:48:00,
2013-07-17 23:53:00,61.2,48.6,30.40,West,270,4.0,6.0,63,0.00,,,0.00,meteohub,2013-07-17 22:53:00,
2013-07-17 23:58:00,61.0,48.7,30.40,SSE,158,3.0,6.0,64,0.00,,,0.00,meteohub,2013-07-17 22:58:00,